Date String (YYYY-MM-DD hh:mm:ss) UTC,Instrument flags,Ambient pressure (hPa),Sample flow (lpm),Bypass flow (lpm),Sample temperature (°C),Ambient temperature (°C),ASC tube jacket temperature (°C),LED temperature (°C),Box temperature (°C),Sample RH (%),Span deviation,Mass concentration (μg/m³),Mass concentration (μg/m³),Mass concentration (μg/m³)
DateTimeUTC,F1_M11,P_M11,Q1_M11,Q2_M11,T1_M11,T2_M11,T3_M11,T4_M11,T5_M11,U1_M11,ZSPAN_M11,X0_M11,X2_M11,X1_M11
2022-07-24 05:00:00,,0831.0,4.99,0.00,30.3,28.6,00.0,38.8,32.0,34.3,0000.0,0006.20,0003.81,0003.38
2022-07-24 05:01:00,,0831.0,5.00,0.00,30.4,28.7,00.0,38.8,32.0,33.8,0000.0,0006.60,0003.89,0003.39
2022-07-24 05:02:00,,0831.0,5.01,0.00,30.5,28.7,00.0,38.8,32.0,33.7,0000.0,0006.74,0003.92,0003.40
2022-07-24 05:03:00,,0830.9,5.00,0.00,30.5,28.8,00.0,38.9,32.0,33.6,0000.0,0006.83,0003.91,0003.40
2022-07-24 05:04:00,,0830.9,5.00,0.00,30.5,28.8,00.0,38.9,32.0,33.7,0000.0,0006.77,0003.91,0003.42
2022-07-24 05:05:00,,0831.0,4.99,0.00,30.6,28.9,00.0,39.0,32.1,33.8,0000.0,0006.70,0003.91,0003.42
2022-07-24 05:06:00,,0830.9,5.01,0.00,30.6,28.4,00.0,38.9,32.0,33.5,0000.0,0006.67,0003.92,0003.43
2022-07-24 05:07:00,,0830.9,4.99,0.00,30.5,27.8,00.0,38.9,32.0,33.0,0000.0,0006.56,0003.90,0003.42
2022-07-24 05:08:00,,0830.8,5.01,0.00,30.5,27.5,00.0,38.9,31.8,32.8,0000.0,0006.55,0003.89,0003.42
2022-07-24 05:09:00,,0830.7,4.99,0.00,30.4,27.5,00.0,38.9,31.7,33.0,0000.0,0006.54,0003.89,0003.42
2022-07-24 05:10:00,,0830.7,5.00,0.00,30.3,27.6,00.0,38.9,31.7,33.2,0000.0,0006.54,0003.89,0003.43
2022-07-24 05:11:00,,0830.8,5.00,0.00,30.2,27.7,00.0,38.9,31.7,33.4,0000.0,0006.51,0003.87,0003.44
2022-07-24 05:12:00,,0830.8,5.00,0.00,30.2,27.8,00.0,38.9,31.6,33.5,0000.0,0006.13,0003.81,0003.44
2022-07-24 05:13:00,,0830.7,5.00,0.00,30.2,27.9,00.0,38.9,31.7,33.5,0000.0,0006.10,0003.81,0003.43
2022-07-24 05:14:00,,0830.7,5.00,0.00,30.2,28.0,00.0,38.9,31.7,34.0,0000.0,0006.05,0003.83,0003.44
2022-07-24 05:15:00,,0830.6,5.00,0.00,30.2,28.1,00.0,38.9,31.7,34.2,0000.0,0005.88,0003.80,0003.42
2022-07-24 05:16:00,,0830.6,5.00,0.00,30.1,28.2,00.0,38.9,31.7,34.3,0000.0,0005.87,0003.82,0003.43
2022-07-24 05:17:00,,0830.6,5.00,0.00,30.1,28.3,00.0,38.9,31.8,34.3,0000.0,0005.94,0003.84,0003.43
2022-07-24 05:18:00,,0830.6,5.00,0.00,30.1,28.4,00.0,38.9,31.8,34.2,0000.0,0005.98,0003.84,0003.43
2022-07-24 05:19:00,,0830.6,5.00,0.00,30.1,28.5,00.0,38.9,31.8,34.2,0000.0,0006.02,0003.84,0003.44
2022-07-24 05:20:00,,0830.6,5.00,0.00,30.2,28.6,00.0,38.9,31.8,34.2,0000.0,0006.09,0003.87,0003.45
2022-07-24 05:21:00,,0830.5,4.99,0.00,30.2,28.6,00.0,38.9,31.9,34.2,0000.0,0006.21,0003.89,0003.44
2022-07-24 05:22:00,,0830.5,5.00,0.00,30.2,28.7,00.0,38.9,31.9,34.1,0000.0,0006.24,0003.89,0003.43
2022-07-24 05:23:00,,0830.5,5.00,0.00,30.2,28.7,00.0,38.9,31.9,34.0,0000.0,0006.37,0003.89,0003.42
2022-07-24 05:24:00,,0830.5,5.00,0.00,30.2,28.8,00.0,38.9,31.9,33.8,0000.0,0006.46,0003.90,0003.40
2022-07-24 05:25:00,,0830.4,4.99,0.00,30.2,28.8,00.0,38.9,32.0,33.8,0000.0,0006.36,0003.86,0003.39
2022-07-24 05:26:00,,0830.5,5.00,0.00,30.2,28.9,00.0,38.9,32.0,34.2,0000.0,0006.38,0003.84,0003.38
2022-07-24 05:27:00,,0830.4,5.01,0.00,30.2,28.9,00.0,38.9,32.0,34.6,0000.0,0006.45,0003.83,0003.37
2022-07-24 05:28:00,,0830.5,5.00,0.00,30.2,28.9,00.0,38.9,32.0,34.5,0000.0,0006.37,0003.80,0003.35
2022-07-24 05:29:00,,0830.6,5.00,0.00,30.3,28.8,00.0,38.9,32.0,34.6,0000.0,0006.39,0003.81,0003.35
2022-07-24 05:30:00,,0830.6,5.01,0.00,30.2,28.0,00.0,38.8,31.9,34.8,0000.0,0006.21,0003.78,0003.33
2022-07-24 05:31:00,,0830.6,4.99,0.00,30.2,27.6,00.0,38.8,31.9,35.4,0000.0,0006.14,0003.75,0003.33
2022-07-24 05:32:00,,0830.6,5.01,0.00,30.4,27.5,00.0,38.8,31.9,35.8,0000.0,0006.07,0003.74,0003.33
2022-07-24 05:33:00,,0830.6,5.00,0.00,30.6,27.6,00.0,38.8,32.0,35.4,0000.0,0007.16,0003.74,0003.33
2022-07-24 05:34:00,,0830.7,4.99,0.00,31.0,27.7,00.0,38.8,32.1,34.4,0000.0,0007.46,0003.78,0003.34
2022-07-24 05:35:00,,0830.7,4.99,0.00,31.2,27.8,00.0,38.9,32.0,34.0,0000.0,0007.49,0003.80,0003.34
2022-07-24 05:36:00,,0830.7,5.00,0.00,31.2,28.0,00.0,38.9,32.0,34.0,0000.0,0007.47,0003.80,0003.34
2022-07-24 05:37:00,,0830.7,5.01,0.00,31.3,28.1,00.0,39.0,32.0,34.2,0000.0,0007.43,0003.81,0003.36
2022-07-24 05:38:00,,0830.8,5.01,0.00,31.3,28.2,00.0,39.1,32.0,34.5,0000.0,0007.44,0003.83,0003.37
2022-07-24 05:39:00,,0830.8,5.00,0.00,31.3,28.3,00.0,39.2,32.0,34.8,0000.0,0007.52,0003.85,0003.39
2022-07-24 05:40:00,,0830.8,4.99,0.00,31.3,28.4,00.0,39.2,32.0,34.9,0000.0,0007.67,0003.90,0003.42
2022-07-24 05:41:00,,0830.8,5.01,0.00,31.3,28.5,00.0,39.3,32.1,35.1,0000.0,0007.86,0003.98,0003.46
2022-07-24 05:42:00,,0830.9,4.99,0.00,31.5,28.6,00.0,39.3,32.2,34.5,0000.0,0008.01,0004.03,0003.48
2022-07-24 05:43:00,,0830.8,5.01,0.00,31.5,28.7,00.0,39.4,32.2,34.5,0000.0,0008.08,0004.08,0003.51
2022-07-24 05:44:00,,0830.7,5.00,0.00,31.6,28.8,00.0,39.4,32.3,35.6,0000.0,0007.45,0004.12,0003.57
2022-07-24 05:45:00,,0830.8,5.00,0.00,31.8,28.8,00.0,39.5,32.5,35.4,0000.0,0007.34,0004.16,0003.63
2022-07-24 05:46:00,,0830.8,4.99,0.00,32.1,28.9,00.0,39.6,32.6,34.5,0000.0,0007.45,0004.21,0003.68
2022-07-24 05:47:00,,0830.8,5.01,0.00,32.3,29.0,00.0,39.6,32.7,33.9,0000.0,0007.59,0004.28,0003.72
2022-07-24 05:48:00,,0830.7,5.00,0.00,32.4,29.0,00.0,39.7,32.6,33.8,0000.0,0007.68,0004.31,0003.73
2022-07-24 05:49:00,,0830.8,5.01,0.00,32.4,29.1,00.0,39.8,32.6,33.6,0000.0,0007.70,0004.33,0003.74
2022-07-24 05:50:00,,0830.8,5.00,0.00,32.4,28.8,00.0,39.9,32.6,33.3,0000.0,0007.72,0004.39,0003.76
2022-07-24 05:51:00,,0830.7,4.99,0.00,32.4,28.1,00.0,39.9,32.5,33.3,0000.0,0007.70,0004.40,0003.78
2022-07-24 05:52:00,,0830.6,5.00,0.00,32.4,27.7,00.0,39.9,32.4,33.5,0000.0,0007.76,0004.44,0003.81
2022-07-24 05:53:00,,0830.6,5.00,0.00,32.2,27.7,00.0,39.9,32.2,34.2,0000.0,0007.73,0004.47,0003.86
2022-07-24 05:54:00,,0830.5,4.99,0.00,32.0,27.7,00.0,40.0,32.2,34.7,0000.0,0007.73,0004.50,0003.91
2022-07-24 05:55:00,,0830.5,5.01,0.00,31.9,27.8,00.0,40.0,32.2,34.6,0000.0,0007.86,0004.55,0003.94
2022-07-24 05:56:00,,0830.4,4.99,0.00,31.8,28.0,00.0,40.0,32.2,34.7,0000.0,0007.91,0004.57,0003.96
2022-07-24 05:57:00,,0830.4,5.00,0.00,31.8,28.1,00.0,40.0,32.2,35.0,0000.0,0007.92,0004.63,0003.99
2022-07-24 05:58:00,,0830.4,5.01,0.00,31.8,28.3,00.0,40.0,32.3,35.0,0000.0,0007.95,0004.68,0004.04
2022-07-24 05:59:00,,0830.4,5.00,0.00,31.9,28.4,00.0,40.0,32.4,34.5,0000.0,0008.04,0004.73,0004.07
